Wind_Speed
14 15 15 16 16 17 17 17 18 17 18 18 18 19 20 20 20 21 21 21 21 22 22 22 23 23 24 24 24 24 24 24 25 26 26 27 28 29
15 16 16 17 17 18 18 18 19 19 19 20 19 20 20 20 21 21 22 23 23 23 23 23 23 23 23 24 25 25 26 26 26 27 27 28 29 30
16 17 17 18 19 19 19 19 20 20 19 19 19 20 21 21 21 22 23 23 23 23 23 23 23 24 24 24 25 26 27 27 27 28 28 29 30 30
17 18 18 19 19 19 20 20 21 21 21 21 21 21 22 22 23 23 24 24 24 24 24 24 24 24 25 26 26 27 27 28 29 29 30 30 30 31
18 19 19 19 20 20 20 21 21 22 21 21 22 22 23 23 24 24 25 25 25 25 25 25 25 25 26 27 27 28 28 29 30 31 31 31 32 32
18 19 19 19 20 20 20 21 21 21 22 22 23 24 24 25 25 25 25 25 25 25 25 26 26 27 27 28 29 29 29 30 30 30 31 32 32 33
19 20 21 21 21 21 21 21 22 22 23 23 24 25 25 26 26 26 25 25 26 26 26 27 28 28 29 30 30 30 31 32 32 32 32 32 33 33
20 20 21 21 21 21 21 22 22 23 24 24 25 25 25 26 26 25 26 26 27 27 27 28 28 29 30 31 31 31 32 32 33 33 33 33 34 34
21 21 22 22 22 22 22 22 23 24 24 25 26 26 27 27 27 27 28 29 29 29 29 29 30 31 31 31 32 32 33 34 34 34 34 34 35 35
22 23 23 23 23 23 24 24 25 25 26 27 27 28 28 29 30 30 31 31 31 31 31 31 31 32 32 32 33 34 34 35 35 35 34 34 34 34
24 24 24 24 24 25 26 26 27 28 28 28 29 29 30 31 31 32 32 33 33 33 33 33 33 33 33 33 33 34 34 34 35 34 33 34 35 35
24 24 25 26 26 26 26 26 27 28 29 30 31 31 32 32 33 33 34 34 34 34 34 34 34 34 34 34 35 35 35 35 35 34 34 34 34 34
24 25 25 26 27 27 27 28 29 29 30 31 31 32 32 33 33 34 34 34 34 34 35 35 35 35 35 36 35 35 36 35 35 34 34 34 33 33
26 26 27 27 28 28 29 30 30 31 31 31 32 32 33 34 34 35 35 35 36 36 36 36 36 36 36 36 36 36 35 35 34 35 34 34 33 33
27 28 29 30 30 30 31 32 32 32 32 33 33 34 34 35 35 36 36 36 36 36 36 36 36 36 36 36 35 35 35 34 34 34 33 33 33 33
29 30 31 31 31 32 32 33 33 34 34 34 35 35 35 36 36 36 36 36 36 36 36 36 36 35 35 35 35 34 34 33 33 33 33 33 33 33
32 31 32 32 33 33 34 34 34 35 35 36 36 36 36 36 36 35 35 35 35 35 35 35 35 34 34 34 34 34 33 33 33 33 33 33 33 32
33 33 34 34 34 35 35 35 36 36 37 37 37 37 36 36 36 35 35 34 34 34 34 34 34 33 34 33 33 33 33 33 32 32 33 32 32 32
35 35 35 35 36 36 36 37 37 37 37 37 37 37 37 36 36 35 35 35 34 34 34 33 33 33 33 32 32 33 33 33 33 33 32 32 32 31
36 36 36 36 37 37 37 37 37 37 37 37 37 37 36 36 36 36 35 35 34 34 34 33 33 33 33 33 33 33 33 32 32 32 32 32 31 30
36 36 37 37 37 37 37 37 37 37 38 38 37 37 36 36 37 36 35 35 34 34 34 33 33 33 33 33 33 32 32 32 32 31 31 30 29 29
36 37 37 38 38 38 38 38 38 38 38 37 37 36 36 36 36 36 35 35 35 34 34 33 33 33 33 33 33 32 32 32 31 30 30 30 29 28
37 37 38 38 38 38 38 38 38 38 37 37 37 36 36 36 36 36 36 35 35 34 34 34 33 33 33 32 32 32 31 31 30 28 28 28 28 28
Wind_Direction
287 287 288 289 288 287 287 287 288 290 292 293 293 291 288 287 289 288 290 293 291 291 292 291 291 290 289 287 287 286 285 286 286 284 285 284 282 281
289 289 289 290 291 290 289 289 289 290 290 291 292 291 292 291 291 290 291 291 292 293 293 291 291 291 290 289 286 286 287 288 286 285 285 285 284 282
292 291 291 291 291 291 290 290 291 290 290 291 293 294 294 293 294 293 293 294 296 295 294 293 292 291 292 293 290 289 289 288 287 287 287 287 285 283
292 293 293 293 292 293 292 291 290 291 291 290 292 294 293 293 293 293 293 294 295 295 294 294 293 293 293 293 293 292 291 290 290 289 289 288 288 287
294 295 294 293 292 292 292 291 290 290 290 290 291 293 293 294 295 294 294 294 294 294 294 294 295 295 295 295 294 293 293 292 291 290 290 290 289 289
295 295 295 293 293 292 292 292 292 292 291 291 292 293 295 295 295 295 294 294 294 295 295 295 294 294 294 294 294 295 294 294 294 293 292 291 290 289
296 296 294 292 293 293 293 293 294 293 293 293 293 294 295 295 295 295 295 296 296 295 294 294 294 295 295 295 294 294 295 294 293 293 293 292 290 290
298 297 296 294 294 294 295 296 296 295 294 294 294 295 296 296 295 296 296 296 296 295 294 295 295 295 295 295 293 293 293 294 294 292 292 293 293 292
296 295 295 294 294 295 296 297 297 296 296 295 295 295 295 295 295 295 296 296 296 295 295 295 296 297 296 295 294 293 293 293 293 292 291 293 293 292
295 295 294 293 294 294 294 294 295 295 296 295 295 295 296 296 296 295 295 295 295 295 295 295 296 296 296 296 295 295 295 295 294 293 292 292 291 290
295 295 295 294 294 294 293 293 293 294 295 296 296 296 296 296 297 296 295 295 295 295 295 295 295 296 296 296 296 297 297 297 295 294 293 292 292 291
297 296 294 293 293 293 294 295 295 295 295 295 295 296 295 295 296 296 296 295 295 295 296 295 295 296 296 295 295 296 296 296 295 295 294 294 294 293
297 296 295 295 295 296 296 295 296 296 296 296 296 296 296 296 296 296 296 295 295 295 296 296 295 296 296 296 295 294 294 295 295 295 294 294 294 294
298 297 296 296 297 297 296 297 298 299 299 298 297 297 298 297 296 295 295 295 294 294 295 295 295 295 296 296 295 295 295 294 293 293 293 293 294 293
300 299 299 299 298 297 297 298 298 299 299 298 298 298 298 298 297 296 296 295 294 294 294 293 293 294 294 295 295 296 295 294 293 293 294 294 293 293
299 300 301 301 301 299 298 298 298 299 299 299 299 298 298 298 298 298 297 296 295 294 295 295 294 294 294 295 295 295 295 294 294 294 294 293 293 293
300 300 300 300 300 300 299 298 298 299 299 299 299 299 299 298 298 298 298 297 296 295 295 294 294 294 294 294 294 294 294 294 294 295 294 294 294 294
299 299 300 299 299 299 299 299 299 299 299 299 299 299 299 299 299 298 297 297 296 296 295 294 293 293 292 293 293 293 293 294 295 295 295 294 293 292
298 298 299 299 299 299 299 299 299 299 299 299 298 299 299 299 298 298 298 297 297 297 296 295 294 294 293 292 292 292 293 293 294 294 295 295 293 293
297 298 299 299 299 299 299 299 299 299 298 299 299 299 299 298 298 298 298 297 296 296 296 295 294 294 294 293 293 292 291 292 292 293 294 294 293 293
298 298 299 299 300 300 299 299 298 298 298 299 299 299 299 298 298 298 297 296 295 295 295 294 294 293 293 292 292 292 291 291 291 293 294 294 294 294
298 298 298 299 300 300 299 298 298 298 298 298 298 299 299 299 299 299 298 296 295 294 294 294 294 294 294 293 292 292 292 291 290 291 292 292 293 293
297 298 298 298 298 298 298 298 298 298 298 298 298 298 298 299 299 299 299 297 296 295 295 295 295 294 294 293 292 292 291 291 291 292 291 290 290 291
Height
5884 5884 5883 5882 5882 5881 5880 5880 5879 5878 5877 5876 5875 5874 5872 5871 5870 5869 5868 5867 5865 5864 5862 5861 5860 5858 5857 5855 5854 5853 5852 5851 5849 5848 5847 5845 5844 5843
5881 5880 5879 5878 5877 5877 5876 5875 5874 5874 5873 5871 5870 5869 5868 5866 5865 5864 5862 5861 5860 5858 5857 5855 5854 5852 5850 5849 5848 5846 5845 5844 5842 5841 5839 5838 5836 5835
5877 5876 5875 5874 5873 5872 5871 5870 5869 5868 5867 5866 5865 5864 5862 5861 5860 5858 5857 5856 5854 5852 5851 5849 5848 5846 5844 5842 5841 5839 5838 5837 5835 5833 5832 5830 5828 5827
5873 5872 5871 5870 5869 5868 5866 5865 5864 5863 5862 5861 5860 5859 5857 5856 5854 5853 5851 5849 5848 5846 5844 5843 5841 5839 5838 5836 5834 5833 5831 5829 5827 5826 5824 5822 5820 5819
5869 5868 5866 5865 5864 5863 5861 5860 5859 5858 5857 5856 5854 5853 5851 5850 5848 5846 5845 5843 5841 5840 5838 5836 5835 5833 5831 5829 5827 5825 5823 5822 5820 5818 5816 5814 5812 5810
5864 5863 5862 5860 5859 5858 5857 5855 5854 5852 5851 5850 5849 5847 5845 5844 5842 5840 5838 5837 5835 5833 5832 5830 5828 5826 5824 5822 5820 5818 5816 5813 5811 5809 5807 5805 5803 5800
5859 5858 5857 5855 5854 5853 5851 5850 5848 5847 5845 5844 5843 5841 5839 5837 5836 5834 5832 5830 5828 5826 5825 5823 5820 5818 5816 5814 5812 5810 5807 5805 5802 5800 5798 5795 5793 5791
5854 5853 5852 5850 5849 5847 5846 5844 5843 5841 5840 5838 5836 5835 5833 5831 5829 5827 5825 5824 5822 5820 5817 5815 5813 5811 5808 5806 5803 5801 5799 5796 5793 5791 5789 5786 5784 5781
5849 5848 5846 5845 5843 5842 5840 5839 5837 5835 5834 5832 5830 5828 5826 5824 5822 5820 5818 5816 5814 5811 5809 5807 5805 5802 5799 5797 5794 5792 5789 5787 5784 5782 5779 5777 5774 5771
5843 5842 5840 5839 5837 5836 5834 5833 5831 5829 5827 5825 5823 5821 5819 5817 5815 5812 5810 5808 5806 5803 5801 5799 5796 5794 5791 5788 5786 5783 5780 5777 5775 5772 5769 5767 5764 5761
5838 5836 5834 5832 5831 5829 5828 5826 5824 5822 5820 5818 5816 5814 5812 5809 5806 5804 5802 5799 5797 5795 5792 5790 5787 5784 5782 5779 5776 5773 5770 5767 5764 5762 5759 5756 5754 5751
5832 5830 5828 5826 5824 5823 5821 5819 5817 5815 5813 5811 5808 5806 5803 5801 5798 5796 5793 5790 5788 5786 5783 5780 5777 5775 5772 5770 5766 5763 5760 5757 5754 5752 5749 5746 5743 5741
5826 5824 5822 5819 5817 5816 5814 5812 5810 5807 5805 5803 5800 5798 5795 5792 5789 5787 5784 5781 5778 5776 5773 5770 5767 5764 5762 5759 5756 5753 5750 5747 5745 5742 5739 5736 5733 5731
5819 5817 5815 5813 5811 5809 5807 5804 5802 5799 5797 5794 5792 5789 5786 5783 5780 5777 5774 5771 5768 5766 5763 5760 5757 5754 5751 5748 5745 5743 5740 5737 5735 5732 5729 5726 5724 5721
5813 5810 5808 5805 5803 5801 5799 5796 5794 5791 5788 5786 5783 5780 5777 5774 5771 5767 5764 5761 5758 5755 5752 5749 5746 5743 5740 5738 5735 5732 5730 5727 5725 5722 5719 5716 5714 5711
5805 5803 5800 5798 5795 5793 5790 5787 5785 5782 5779 5776 5773 5770 5767 5764 5760 5757 5754 5751 5748 5745 5741 5738 5735 5733 5730 5727 5725 5722 5720 5717 5714 5712 5709 5706 5704 5701
5797 5795 5793 5790 5787 5784 5781 5778 5775 5772 5769 5766 5763 5760 5757 5754 5750 5747 5744 5740 5737 5734 5731 5728 5725 5722 5720 5717 5715 5712 5709 5707 5704 5702 5699 5696 5694 5691
5789 5787 5784 5781 5778 5775 5772 5769 5766 5763 5760 5756 5753 5750 5747 5744 5740 5737 5734 5730 5727 5724 5721 5718 5715 5712 5710 5707 5705 5702 5699 5697 5694 5692 5689 5686 5684 5681
5780 5777 5774 5772 5769 5766 5763 5759 5756 5753 5750 5746 5743 5740 5737 5733 5730 5727 5723 5720 5717 5714 5711 5708 5705 5702 5700 5698 5695 5692 5690 5687 5684 5682 5679 5677 5674 5672
5770 5767 5764 5762 5759 5756 5753 5749 5746 5743 5739 5736 5733 5730 5726 5723 5720 5717 5713 5710 5707 5704 5701 5697 5695 5692 5689 5687 5685 5682 5679 5677 5674 5672 5669 5667 5665 5662
5760 5757 5754 5752 5749 5746 5742 5739 5736 5732 5729 5726 5723 5719 5716 5713 5709 5706 5703 5700 5697 5694 5691 5688 5684 5682 5679 5676 5674 5672 5669 5667 5664 5662 5660 5658 5655 5653
5751 5748 5745 5741 5738 5735 5732 5729 5725 5722 5719 5715 5712 5709 5706 5702 5699 5696 5692 5689 5686 5683 5680 5677 5674 5671 5669 5666 5664 5661 5659 5657 5654 5652 5650 5648 5646 5644
5741 5738 5734 5731 5728 5725 5722 5718 5715 5712 5709 5705 5702 5699 5695 5692 5689 5685 5682 5679 5676 5673 5670 5667 5664 5661 5658 5656 5654 5651 5649 5647 5645 5643 5642 5639 5637 5636